K5EBQ Weather Reports


Display with metric or nautical units.
time (UTC)temp
F
wind
direction
speed
MPH
gust
MPH
rain 1hr
in
rain 24hr
in
rain mn
in
humidity
%
barometer
mb
20260509101522 74 95 0.0 0.0 0.00 0.00 0.00 96 1007.1
20260509100020 74 95 0.0 0.0 0.00 0.00 0.00 95 1006.9
20260509094516 74 95 0.0 0.0 0.00 0.00 0.00 96 1006.9
20260509093011 75 95 0.0 0.0 0.00 0.00 0.00 96 1007.0
20260509091517 75 95 0.0 0.0 0.00 0.00 0.00 96 1007.3
20260509090008 75 95 0.0 0.0 0.00 0.00 0.00 96 1007.2
20260509084512 74 95 0.0 0.0 0.00 0.00 0.00 95 1007.4
20260509083006 75 95 0.0 0.0 0.00 0.00 0.00 95 1007.2
20260509081506 75 95 0.0 0.0 0.00 0.00 0.00 95 1007.1
20260509080005 75 95 0.0 0.0 0.00 0.00 0.00 95 1007.1
20260509074505 75 95 0.0 0.0 0.00 0.00 0.00 95 1007.1
20260509073004 75 95 0.0 0.0 0.00 0.00 0.00 95 1007.3
20260509071502 75 95 0.0 0.0 0.00 0.00 0.00 95 1007.1
20260509070101 75 95 0.0 0.0 0.00 0.00 0.00 95 1007.5
20260509064618 75 95 0.0 0.0 0.00 0.00 0.00 95 1007.4
20260509063054 75 95 0.0 0.0 0.00 0.00 0.00 95 1007.6
20260509061559 75 95 0.0 0.0 0.00 0.00 0.00 94 1007.8
20260509060047 75 95 0.0 0.0 0.00 0.00 0.00 94 1007.8
20260509054541 75 95 0.0 0.0 0.00 0.00 0.00 94 1007.8
20260509053038 75 95 0.0 0.0 0.00 0.00 0.00 94 1007.9
20260509051537 74 95 0.0 0.0 0.00 0.00 0.00 94 1008.0
20260509050034 74 94 0.0 0.0 0.00 0.00 0.00 94 1007.8
20260509044530 74 94 0.0 0.0 0.00 0.00 0.00 94 1008.1
20260509043030 74 94 0.0 0.0 0.00 0.00 0.00 94 1008.0
20260509041530 74 94 0.0 0.0 0.00 0.00 0.00 93 1008.1
20260509040035 74 94 0.0 0.0 0.00 0.00 0.00 94 1007.8
20260509034541 74 94 0.0 0.0 0.00 0.00 0.00 93 1007.5
20260509033028 74 94 0.0 0.0 0.00 0.00 0.00 93 1007.5
20260509031529 74 94 0.0 0.0 0.00 0.00 0.00 93 1007.5
20260509030028 74 95 0.0 0.0 0.00 0.00 0.00 93 1007.6
20260509024532 74 95 0.0 0.0 0.00 0.00 0.00 93 1007.4
20260509023031 74 94 0.0 0.0 0.00 0.00 0.00 93 1007.3
20260509021526 74 94 0.0 0.0 0.00 0.00 0.00 92 1007.1
20260509020026 74 100 0.0 0.0 0.00 0.00 0.00 92 1006.9
20260509014524 74 100 0.0 0.0 0.00 0.00 0.00 92 1006.9
20260509013024 74 100 0.0 0.0 0.00 0.00 0.00 92 1006.8
20260509011524 74 35 0.0 0.0 0.00 0.00 0.00 92 1006.8
20260509010031 74 35 0.0 0.0 0.00 0.00 0.00 92 1006.8
20260509004532 74 88 0.0 0.0 0.00 0.00 0.00 92 1006.6
20260509003022 74 57 0.0 0.0 0.00 0.00 0.00 91 1006.7
20260509001525 74 43 0.0 0.0 0.00 0.00 0.00 91 1006.7
20260509000019 75 110 0.0 0.0 0.00 0.00 0.00 90 1006.8
20260508234517 75 124 0.0 0.0 0.00 0.00 0.00 90 1006.9
20260508233017 74 51 0.0 0.0 0.00 0.00 0.00 90 1006.9
20260508231516 75 78 0.0 0.0 0.00 0.00 0.00 90 1007.0
20260508230017 75 72 0.0 0.0 0.00 0.00 0.00 89 1006.9
20260508224515 75 123 0.0 0.0 0.00 0.00 0.00 89 1006.8
20260508223014 75 55 0.0 0.0 0.00 0.00 0.00 91 1006.9
20260508221514 74 71 0.0 0.0 0.00 0.00 0.00 91 1007.0
20260508220012 74 80 0.0 0.0 0.00 0.00 0.00 90 1007.0
20260508214514 75 132 0.0 0.0 0.00 0.00 0.00 90 1007.0
20260508213015 75 151 0.0 0.0 0.00 0.00 0.00 89 1007.4
20260508211509 75 100 0.0 0.0 0.00 0.00 0.00 88 1007.5
20260508210010 76 116 0.0 0.0 0.00 0.00 0.00 88 1007.4
20260508204508 75 51 0.0 0.0 0.00 0.00 0.00 88 1007.4
20260508203013 75 61 0.0 0.0 0.00 0.00 0.00 88 1007.8
20260508201506 74 126 0.0 0.0 0.00 0.00 0.00 89 1007.6
20260508200058 74 102 0.0 0.0 0.00 0.00 0.00 88 1008.0
20260508194556 74 77 0.0 0.0 0.00 0.00 0.00 89 1008.1
20260508193101 73 88 0.0 0.0 0.00 0.00 0.00 89 1008.6
20260508191552 73 107 0.0 0.0 0.00 0.00 0.00 89 1008.8
20260508190103 73 76 0.0 0.0 0.00 0.00 0.00 87 1008.7
20260508184542 73 57 0.0 0.0 0.00 0.00 0.00 88 1008.6
20260508183050 73 142 0.0 0.0 0.00 0.00 0.00 88 1008.7
20260508181538 72 140 0.0 0.0 0.00 0.00 0.00 88 1008.7
20260508180040 72 117 0.0 0.0 0.00 0.00 0.00 88 1009.0
20260508174537 72 88 0.0 0.0 0.00 0.00 0.00 87 1009.6
20260508173030 72 83 0.0 0.0 0.00 0.00 0.00 87 1009.5
20260508171529 72 65 0.0 0.0 0.00 0.00 0.00 86 1009.7
20260508170034 71 55 0.0 0.0 0.00 0.00 0.00 86 1009.8
20260508164536 71 69 0.0 0.0 0.00 0.00 0.00 86 1010.2
20260508163030 71 65 0.0 0.0 0.00 0.00 0.00 86 1010.0
20260508161524 70 49 0.0 0.0 0.00 0.00 0.00 87 1009.8
20260508160023 70 61 0.0 0.0 0.00 0.00 0.00 86 1010.6
20260508154523 70 28 0.0 0.0 0.00 0.00 0.00 86 1010.7
20260508153031 70 24 0.0 0.0 0.00 0.00 0.00 86 1010.6
20260508151522 70 53 0.0 0.0 0.00 0.00 0.00 85 1010.8
20260508150023 70 86 0.0 0.0 0.00 0.00 0.00 84 1010.7
20260508144527 70 34 0.0 0.0 0.00 0.00 0.00 85 1010.7
20260508143023 69 65 0.0 0.0 0.00 0.00 0.00 87 1010.8
20260508141521 69 259 0.0 0.0 0.00 0.00 0.00 88 1010.8
20260508140023 69 59 0.0 0.0 0.00 0.00 0.00 88 1010.9
20260508134518 69 77 0.0 0.0 0.00 0.00 0.00 88 1010.5
20260508133018 69 94 0.0 0.0 0.00 0.00 0.00 89 1010.5
20260508131518 69 98 0.0 0.0 0.00 0.00 0.00 88 1010.7
20260508130030 69 76 0.0 0.0 0.00 0.00 0.00 86 1010.6
20260508124516 69 38 0.0 0.0 0.00 0.00 0.00 87 1010.6
20260508123017 69 355 0.0 0.0 0.00 0.00 0.00 87 1010.4
20260508121515 68 55 0.0 0.0 0.00 0.00 0.00 87 1010.5
20260508120015 69 44 0.0 0.0 0.00 0.00 0.00 88 1011.1
20260508114513 69 49 0.0 0.0 0.00 0.00 0.00 87 1011.1
20260508113017 69 49 0.0 0.0 0.00 0.00 0.00 87 1011.2
20260508111512 68 84 0.0 0.0 0.00 0.00 0.00 87 1010.6
20260508110010 69 119 0.0 0.0 0.00 0.00 0.00 85 1010.3
20260508104508 69 9 0.0 0.0 0.00 0.00 0.00 85 1010.2
20260508103011 69 5 0.0 0.0 0.00 0.00 0.00 85 1010.6